Overview Statistics Trail Chart Weather Telemetry Raw packets
 

This is the latest recevied weather packets stored in our database for station/object CE3TDM-10. If no packets are shown the sender has not sent any weather packets the latest 10 day(s).

<< 19 20 21 22 23 24 25 >>
Time Temp. Humidity Pressure Rain* Wind** Luminosity Snow
1787998770 22.78° C 35% 921.2 hPa - - - -
1787996970 22.78° C 35% 921.2 hPa - - - -
1787996070 22.78° C 35% 921 hPa - - - -
1787995170 23.33° C 35% 920.9 hPa - - - -
1787994273 23.33° C 35% 920.9 hPa - - - -
1787991570 23.33° C 35% 920.9 hPa - - - -
1787990670 23.33° C 35% 921 hPa - - - -
1787989769 23.33° C 35% 921 hPa - - - -
1787987969 23.33° C 34% 920.7 hPa - - - -
1787986169 23.33° C 34% 920.6 hPa - - - -
1787984369 23.89° C 34% 920.8 hPa - - - -
1787983469 23.89° C 34% 921 hPa - - - -
1787982569 23.89° C 34% 921 hPa - - - -
1787980769 23.89° C 34% 921 hPa - - - -
1787978969 25.56° C 32% 921 hPa - - - -
1787976268 26.11° C 32% 921.5 hPa - - - -
1787975368 26.67° C 32% 921.6 hPa - - - -
1787974468 27.22° C 31% 921.5 hPa - - - -
1787972674 27.78° C 31% 921.7 hPa - - - -
1787971768 28.33° C 31% 921.9 hPa - - - -
1787968168 30.56° C 31% 922.4 hPa - - - -
1787965467 28.89° C 34% 922.3 hPa - - - -
1787964567 24.44° C 35% 922.3 hPa - - - -
1787963667 24.44° C 35% 922.3 hPa - - - -
1787962767 24.44° C 35% 922.2 hPa - - - -

* Rain since midnight (hover to see other rain measurements)
** Current wind speed in m/s (hover to see current wind gust speed)